Location: Peebles
(55.6412°N, 3.1714°W)
Time: 17:56:23
(UTC+01:00)

USA 281 - Pass Details

Date: 31 January 2022
Orbit: 1070 x 1089 km, 106.0° (Epoch: 25 March)

Event Time Altitude Azimuth Distance (km) Brightness Sun altitude
Rises 02:40:35 0° 29° (NNE) 3,906 6.9 -44.1°
Reaches altitude 10° 02:43:07 10° 30° (NNE) 2,948 6.1 -43.8°
Enters shadow 02:46:03 29° 32° (NNE) 1,892 4.8 -43.5°
